KE8BSM Weather Reports


Display with metric or nautical units.
time (UTC)temp
F
wind
direction
speed
MPH
gust
MPH
rain 1hr
in
rain 24hr
in
rain mn
in
humidity
%
barometer
mb
20260508124826 46 167 2.0 2.0 0.00 0.00 0.00 77 1011.6
20260508123826 45 227 1.0 1.0 0.00 0.00 0.00 78 1011.7
20260508122826 44 173 0.0 0.0 0.00 0.00 0.00 80 1011.6
20260508121826 42 0.0 0.0 0.00 0.00 0.00 82 1011.5
20260508120827 41 0.0 0.0 0.00 0.00 0.00 85 1011.4
20260508115827 40 0.0 0.0 0.00 0.00 0.00 88 1011.3
20260508114827 39 0.0 0.0 0.00 0.00 0.00 90 1011.2
20260508113827 38 0.0 0.0 0.00 0.00 0.00 94 1011.1
20260508112827 37 0.0 0.0 0.00 0.00 0.00 92 1011.0
20260508111827 36 0.0 0.0 0.00 0.00 0.00 94 1011.0
20260508110828 36 0.0 0.0 0.00 0.00 0.00 95 1011.0
20260508105828 36 0.0 0.0 0.00 0.00 0.00 94 1011.0
20260508104828 36 0.0 0.0 0.00 0.00 0.00 93 1010.9
20260508103828 36 0.0 0.0 0.00 0.00 0.00 92 1010.8
20260508102848 37 0.0 0.0 0.00 0.00 0.00 94 1010.7
20260508101828 36 0.0 0.0 0.00 0.00 0.00 95 1010.7
20260508100829 37 0.0 0.0 0.00 0.00 0.00 94 1010.9
20260508095829 37 0.0 0.0 0.00 0.00 0.00 95 1010.9
20260508094815 37 0.0 0.0 0.00 0.00 0.00 93 1010.9
20260508093816 37 0.0 0.0 0.00 0.00 0.00 93 1010.9
20260508092816 38 0.0 0.0 0.00 0.00 0.00 94 1011.1
20260508091816 38 260 0.0 0.0 0.00 0.00 0.00 95 1011.1
20260508090816 38 267 1.0 1.0 0.00 0.00 0.00 92 1011.1
20260508085816 38 0.0 0.0 0.00 0.00 0.00 90 1011.1
20260508084817 38 294 0.0 0.0 0.00 0.00 0.00 91 1011.1
20260508083816 38 0.0 0.0 0.00 0.00 0.00 88 1011.1
20260508082817 38 0.0 0.0 0.00 0.00 0.00 87 1011.1
20260508081837 39 0.0 0.0 0.00 0.00 0.00 87 1011.1
20260508080817 39 322 1.0 2.0 0.00 0.00 0.00 90 1011.2
20260508075837 39 0.0 0.0 0.00 0.00 0.00 86 1011.2
20260508074817 39 0.0 0.0 0.00 0.00 0.00 86 1011.1
20260508073817 39 0.0 0.0 0.00 0.00 0.00 86 1011.1
20260508072838 40 0.0 0.0 0.00 0.00 0.00 83 1011.3
20260508071818 40 190 1.0 2.0 0.00 0.00 0.00 85 1011.4
20260508070818 40 0.0 0.0 0.00 0.00 0.00 86 1011.5
20260508065818 40 184 1.0 2.0 0.00 0.00 0.00 83 1011.6
20260508064815 40 0.0 0.0 0.00 0.00 0.00 83 1011.6
20260508063815 40 181 0.0 1.0 0.00 0.00 0.00 82 1011.6
20260508062836 40 0.0 0.0 0.00 0.00 0.00 83 1011.6
20260508061816 41 0.0 0.0 0.00 0.00 0.00 82 1011.7
20260508060836 41 0.0 0.0 0.00 0.00 0.00 81 1011.8
20260508055816 41 0.0 0.0 0.00 0.00 0.00 81 1011.8
20260508054816 41 0.0 0.0 0.00 0.00 0.00 81 1011.8
20260508053816 41 0.0 0.0 0.00 0.00 0.00 80 1011.8
20260508052816 41 31 0.0 1.0 0.00 0.00 0.00 81 1012.0
20260508051817 42 6 2.0 3.0 0.00 0.00 0.00 81 1012.1
20260508050837 42 326 1.0 2.0 0.00 0.00 0.00 83 1012.1
20260508045817 42 0.0 0.0 0.00 0.00 0.00 80 1012.0
20260508044837 42 342 0.0 1.0 0.00 0.00 0.00 86 1012.0
20260508043857 42 0.0 0.0 0.00 0.00 0.00 81 1011.9
20260508042818 43 323 1.0 2.0 0.00 0.00 0.00 83 1011.8
20260508041817 43 0.0 0.0 0.00 0.00 0.00 78 1011.7
20260508040818 43 354 0.0 2.0 0.00 0.00 0.00 79 1011.6
20260508035835 44 338 1.0 2.0 0.00 0.00 0.00 78 1011.5
20260508034818 44 0.0 0.0 0.00 0.00 0.00 76 1011.5
20260508033815 44 0.0 0.0 0.00 0.00 0.00 73 1011.4
20260508032815 44 0.0 0.0 0.00 0.00 0.00 73 1011.5
20260508031816 45 0.0 0.0 0.00 0.00 0.00 74 1011.6
20260508030815 46 0.0 0.0 0.00 0.00 0.00 74 1011.6
20260508025856 46 0.0 0.0 0.00 0.00 0.00 72 1011.6
20260508024816 46 0.0 0.0 0.00 0.00 0.00 70 1011.6
20260508023816 46 343 0.0 1.0 0.00 0.00 0.00 70 1011.5
20260508022816 46 0.0 0.0 0.00 0.00 0.00 69 1011.4
20260508021816 46 328 1.0 1.0 0.00 0.00 0.00 69 1011.3
20260508020817 47 332 0.0 1.0 0.00 0.00 0.00 70 1011.2
20260508015817 47 0.0 0.0 0.00 0.00 0.00 69 1011.1
20260508014837 47 0.0 0.0 0.00 0.00 0.00 66 1011.1
20260508013817 48 0.0 0.0 0.00 0.00 0.00 64 1010.9
20260508012817 48 0.0 0.0 0.00 0.00 0.00 62 1010.8
20260508011817 49 0.0 0.0 0.00 0.00 0.00 60 1010.6
20260508010837 50 0.0 0.0 0.00 0.00 0.00 57 1010.6
20260508005817 50 272 0.0 1.0 0.00 0.00 0.00 58 1010.5
20260508004818 51 0.0 0.0 0.00 0.00 0.00 56 1010.5
20260508003818 51 323 1.0 2.0 0.00 0.00 0.00 56 1010.3
20260508002818 52 266 0.0 1.0 0.00 0.00 0.00 49 1010.3
20260508001815 52 249 0.0 0.0 0.00 0.00 0.00 52 1010.3
20260508000815 52 41 2.0 3.0 0.00 0.00 0.00 49 1010.2
20260507235815 53 13 1.0 3.0 0.00 0.00 0.00 48 1010.3
20260507234816 53 26 1.0 3.0 0.00 0.00 0.00 47 1010.3
20260507233816 53 18 1.0 3.0 0.00 0.00 0.00 47 1010.3
20260507232816 53 49 0.0 1.0 0.00 0.00 0.00 49 1010.4
20260507231817 53 215 1.0 2.0 0.00 0.00 0.00 48 1010.4
20260507230816 53 207 1.0 3.0 0.00 0.00 0.00 46 1010.7
20260507225817 54 273 2.0 3.0 0.00 0.00 0.00 48 1010.7
20260507224817 53 281 1.0 3.0 0.00 0.00 0.00 48 1010.9
20260507223817 53 96 0.0 1.0 0.00 0.00 0.00 48 1011.0
20260507222817 52 347 1.0 3.0 0.00 0.00 0.00 48 1011.0
20260507221837 52 310 1.0 2.0 0.00 0.00 0.00 46 1011.0
20260507220818 53 236 1.0 3.0 0.00 0.00 0.00 47 1011.1
20260507215818 53 255 1.0 2.0 0.00 0.00 0.00 49 1011.1
20260507214818 53 214 1.0 3.0 0.00 0.00 0.00 47 1011.1
20260507213818 54 331 2.0 5.0 0.00 0.00 0.00 45 1011.0
20260507212815 53 354 2.0 5.0 0.00 0.00 0.00 44 1011.0
20260507211835 53 309 1.0 2.0 0.00 0.00 0.00 44 1011.1
20260507210835 53 224 2.0 5.0 0.00 0.00 0.00 45 1011.2
20260507205816 53 225 4.0 5.0 0.00 0.00 0.00 43 1011.1
20260507204816 52 223 4.0 7.0 0.00 0.00 0.00 44 1011.3
20260507203816 52 205 2.0 5.0 0.00 0.00 0.00 48 1011.6
20260507202816 52 203 4.0 6.0 0.00 0.00 0.00 46 1011.9
20260507201816 51 20 2.0 3.0 0.00 0.00 0.00 45 1012.0
20260507200817 51 247 3.0 6.0 0.00 0.00 0.00 45 1012.1
20260507195817 51 222 6.0 8.0 0.00 0.00 0.00 45 1012.3
20260507194817 51 186 1.0 3.0 0.00 0.00 0.00 47 1012.4
20260507193817 51 204 5.0 6.0 0.00 0.00 0.00 46 1012.4
20260507192817 50 170 3.0 6.0 0.00 0.00 0.00 46 1012.5
20260507191817 50 261 4.0 8.0 0.00 0.00 0.00 46 1012.7
20260507190817 50 37 5.0 9.0 0.00 0.00 0.00 46 1012.7
20260507185818 51 221 4.0 7.0 0.00 0.00 0.00 45 1012.7
20260507184818 51 221 6.0 8.0 0.00 0.00 0.00 48 1012.8
20260507183818 50 49 3.0 8.0 0.00 0.00 0.00 44 1012.7
20260507182815 50 12 6.0 9.0 0.00 0.00 0.00 45 1012.7
20260507181815 49 97 3.0 6.0 0.00 0.00 0.00 46 1012.7
20260507180815 50 346 3.0 5.0 0.00 0.00 0.00 44 1012.8
20260507175815 49 338 1.0 3.0 0.00 0.00 0.00 45 1012.7
20260507174815 49 239 4.0 6.0 0.00 0.00 0.00 47 1012.9
20260507173836 48 335 3.0 5.0 0.00 0.00 0.00 46 1012.9
20260507172816 48 244 1.0 3.0 0.00 0.00 0.00 48 1013.1
20260507171816 48 166 2.0 4.0 0.00 0.00 0.00 46 1013.1
20260507170816 48 2 1.0 3.0 0.00 0.00 0.00 46 1013.4
20260507165816 48 237 3.0 5.0 0.00 0.00 0.00 47 1013.6
20260507164837 48 330 4.0 8.0 0.00 0.00 0.00 47 1013.8
20260507163817 48 9 6.0 9.0 0.00 0.00 0.00 48 1013.8
20260507162817 47 23 2.0 4.0 0.00 0.00 0.00 50 1014.0
20260507161817 47 357 4.0 5.0 0.00 0.00 0.00 53 1014.2
20260507160817 47 13 4.0 7.0 0.00 0.00 0.00 52 1014.3
20260507155818 47 331 6.0 11.0 0.00 0.00 0.00 54 1014.4
20260507154837 47 1 4.0 7.0 0.00 0.00 0.00 52 1014.5
20260507153818 47 32 4.0 7.0 0.00 0.00 0.00 52 1014.5
20260507152818 47 166 4.0 6.0 0.00 0.00 0.00 52 1014.3
20260507151818 47 346 6.0 9.0 0.00 0.00 0.00 55 1014.4
20260507150818 47 255 3.0 6.0 0.00 0.00 0.00 54 1014.2
20260507145818 47 39 5.0 7.0 0.00 0.00 0.00 55 1014.0
20260507144818 47 165 3.0 6.0 0.00 0.00 0.00 55 1014.1
20260507143818 47 223 2.0 4.0 0.00 0.00 0.00 56 1014.1
20260507142818 47 338 6.0 8.0 0.00 0.00 0.00 54 1014.2
20260507141819 46 163 3.0 5.0 0.00 0.00 0.00 52 1014.2
20260507140819 46 232 4.0 7.0 0.00 0.00 0.00 54 1014.3
20260507135819 46 22 5.0 7.0 0.00 0.00 0.00 54 1014.3
20260507134819 46 257 5.0 9.0 0.00 0.00 0.00 55 1014.2
20260507133819 46 200 3.0 4.0 0.00 0.00 0.00 57 1014.2
20260507132819 45 217 3.0 4.0 0.00 0.00 0.00 58 1014.1
20260507131859 45 57 4.0 6.0 0.00 0.00 0.00 64 1014.0
20260507130819 44 26 4.0 6.0 0.00 0.00 0.00 64 1014.1
20260507125819 44 246 3.0 4.0 0.00 0.00 0.00 66 1014.0